Location: Dana
(41.8364°N, 106.7042°W)
Time: 11:09:02
(UTC+00:00)

Tiros 1 - All Passes

Search period start: 15 May 2026 00:00
Search period end: 25 May 2026 00:00
Orbit: 618 x 648 km, 48.4° (Epoch: 14 May)

Date Brightness Start Highest point End Pass type
(mag) Time Alt. Az. Time Alt. Az. Time Alt. Az.
15 May - 05:35:48 10° SSW 05:39:35 25° SE 05:43:21 10° E visible
15 May - 07:16:31 10° WSW 07:21:09 78° NNW 07:25:44 10° ENE visible
15 May - 08:59:11 10° WNW 09:03:28 37° N 09:07:43 10° ENE visible
15 May - 10:41:39 10° WNW 10:46:02 43° NNE 10:50:23 10° E visible
15 May - 12:23:34 10° WNW 12:28:06 67° SSW 12:32:36 10° SE daylight
15 May - 14:07:08 10° WSW 14:09:18 13° SW 14:11:29 10° SSW daylight
16 May - 05:56:23 10° SW 06:00:51 49° SE 06:05:18 10° ENE visible
16 May - 07:38:16 10° W 07:42:46 51° NNW 07:47:15 10° ENE visible
16 May - 09:21:03 10° WNW 09:25:17 36° N 09:29:30 10° ENE visible
16 May - 11:03:10 10° WNW 11:07:43 62° NNE 11:12:13 10° ESE visible
16 May - 12:45:19 10° WNW 12:49:26 34° SW 12:53:32 10° SSE daylight
17 May - 04:37:25 10° S 04:40:50 20° SE 04:44:14 10° E night (unlit)
17 May - 06:17:38 10° WSW 06:22:17 90° SSE 06:26:54 10° ENE visible
17 May - 08:00:11 10° W 08:04:31 39° N 08:08:50 10° ENE visible
17 May - 09:42:45 10° WNW 09:47:06 40° N 09:51:25 10° E visible
17 May - 11:24:41 10° WNW 11:29:16 80° SSW 11:33:48 10° SE daylight
17 May - 13:07:40 10° W 13:10:36 17° SW 13:13:31 10° S daylight
18 May - 04:57:42 10° SSW 05:02:03 40° SE 05:06:22 10° ENE visible
18 May - 06:39:18 10° W 06:43:52 57° NNW 06:48:24 10° ENE visible
18 May - 08:22:05 10° WNW 08:26:20 35° N 08:30:34 10° ENE visible
18 May - 10:04:19 10° WNW 10:08:49 55° NNE 10:13:17 10° E visible
18 May - 11:46:21 10° WNW 11:50:39 42° SW 11:54:56 10° SSE daylight
19 May - 03:39:12 10° S 03:42:06 16° SE 03:44:59 10° E visible
19 May - 05:18:47 10° SW 05:23:25 76° SSE 05:28:02 10° ENE visible
19 May - 07:01:11 10° W 07:05:35 41° NNW 07:09:57 10° ENE visible
19 May - 08:43:50 10° WNW 08:48:09 38° N 08:52:26 10° ENE visible
19 May - 10:25:49 10° WNW 10:30:25 86° NNE 10:34:59 10° ESE visible
19 May - 12:08:25 10° W 12:11:52 21° SW 12:15:17 10° S daylight
20 May - 03:59:06 10° SSW 04:03:16 33° SE 04:07:25 10° ENE visible
20 May - 05:40:21 10° WSW 05:44:57 65° NNW 05:49:33 10° ENE visible
20 May - 07:23:06 10° WNW 07:27:22 36° N 07:31:38 10° ENE visible
20 May - 09:05:26 10° WNW 09:09:54 49° NNE 09:14:20 10° E visible
20 May - 10:47:24 10° WNW 10:51:51 52° SW 10:56:16 10° SE visible
21 May - 02:41:16 10° SSE 02:43:22 13° SE 02:45:28 10° ESE daylight
21 May - 04:19:58 10° SW 04:24:34 64° SSE 04:29:10 10° ENE visible
21 May - 06:02:10 10° W 06:06:38 45° NNW 06:11:04 10° ENE visible
21 May - 07:44:54 10° WNW 07:49:12 37° N 07:53:28 10° ENE visible
21 May - 09:26:57 10° WNW 09:31:33 74° NNE 09:36:06 10° ESE visible
21 May - 11:09:18 10° W 11:13:07 26° SW 11:16:55 10° SSE visible
22 May - 03:00:34 10° SSW 03:04:29 27° SE 03:08:22 10° E visible
22 May - 04:41:24 10° WSW 04:46:04 75° NNW 04:50:42 10° ENE visible
22 May - 06:24:06 10° WNW 06:28:25 37° N 06:32:42 10° ENE visible
22 May - 08:06:33 10° WNW 08:10:59 45° NNE 08:15:23 10° E visible
22 May - 09:48:30 10° WNW 09:53:02 64° SSW 09:57:31 10° SE visible
22 May - 11:32:15 10° WSW 11:34:12 13° SW 11:36:10 10° SSW daylight
23 May - 03:21:13 10° SW 03:25:45 52° SE 03:30:16 10° ENE visible
23 May - 05:03:10 10° W 05:07:42 50° NNW 05:12:13 10° ENE visible
23 May - 06:45:57 10° WNW 06:50:15 36° N 06:54:30 10° ENE visible
23 May - 08:28:04 10° WNW 08:32:40 64° NNE 08:37:12 10° ESE visible
23 May - 10:10:15 10° WNW 10:14:21 33° SW 10:18:25 10° SSE visible
24 May - 02:02:09 10° S 02:05:43 22° SE 02:09:16 10° E daylight
24 May - 03:42:30 10° WSW 03:47:11 87° NNW 03:51:51 10° ENE visible
24 May - 05:25:05 10° WNW 05:29:27 39° N 05:33:48 10° ENE visible
24 May - 07:07:38 10° WNW 07:12:02 41° NNE 07:16:24 10° E visible
24 May - 08:49:35 10° WNW 08:54:12 77° SSW 08:58:45 10° SE visible
24 May - 10:32:41 10° W 10:35:30 16° SW 10:38:18 10° S visible
